Brookings, SD

9:00 PM CST on February 24, 2017 (GMT -0600)
Brookings Municipal

Weather History for KBKX - April, 2013

Change the Weather History Date:

Sunday, April 7, 2013

  Actual Average Record
Temperature  
Mean Temperature 40 °F -  
Max Temperature 51 °F 47 °F 68 °F (2004)
Min Temperature 30 °F 29 °F 12 °F (2007)
Degree Days  
Heating Degree Days 24    
Moisture  
Dew Point 35 °F    
Average Humidity 84    
Maximum Humidity 100    
Minimum Humidity 58    
Precipitation  
Precipitation 0.00 in - - ()
Sea Level Pressure  
Sea Level Pressure 29.81 in    
Wind  
Wind Speed 9 mph (SSE)    
Max Wind Speed 14 mph    
Max Gust Speed 20 mph    
Visibility 6 miles    
Events      
Averages and records for this station are not official NWS values.
T = Trace of Precipitation, MM = Missing Value Source: NWS Daily Summary

Daily Weather History Graph

Daily Weather History Graph

Search for Another Location

Airport or City:

Trip Planner

Search our weather history database for the weather conditions in past years. The results will help you decide how hot, cold, wet, or windy it might be!

Date:

Astronomy

Apr. 07, 2013 Rise Set
Actual Time 6:57 AM CDT 8:02 PM CDT
Civil Twilight 6:27 AM CDT 8:31 PM CDT
Nautical Twilight 5:52 AM CDT 9:07 PM CDT
Astronomical Twilight 5:14 AM CDT 9:45 PM CDT
Moon 5:20 AM CDT (4/7) 5:31 PM CDT (4/7)
Length of Visible Light 14h 04m
Length of Day
13h 05m
Waning Crescent, 8% of the Moon is Illuminated
Apr 7
Waning Crescent
Apr 10
New
Apr 18
First Quarter
Apr 25
Full
May 2
Last Quarter

Hourly Weather History & Observations

Time (CDT) Temp. Windchill Dew Point Humidity Pressure Visibility Wind Dir Wind Speed Gust Speed Precip Events Conditions
12:15 AM 35.6 °F 27.5 °F 32.0 °F 87% 29.84 in 7.0 mi ENE 11.5 mph - N/A   Overcast
12:35 AM 33.8 °F 26.4 °F 30.2 °F 87% 29.84 in 8.0 mi ENE 9.2 mph - N/A   Overcast
12:55 AM 33.8 °F 26.4 °F 30.2 °F 87% 29.86 in 7.0 mi NE 9.2 mph - N/A   Overcast
1:15 AM 33.8 °F 27.0 °F 30.2 °F 87% 29.85 in 7.0 mi ENE 8.1 mph - N/A   Overcast
1:35 AM 33.8 °F 28.6 °F 30.2 °F 87% 29.86 in 7.0 mi ENE 5.8 mph - N/A   Overcast
1:55 AM 33.8 °F 27.0 °F 30.2 °F 87% 29.85 in 7.0 mi East 8.1 mph - N/A   Overcast
2:15 AM 33.8 °F 26.4 °F 30.2 °F 87% 29.85 in 7.0 mi East 9.2 mph - N/A   Overcast
2:35 AM 33.8 °F 27.0 °F 30.2 °F 87% 29.85 in 5.0 mi East 8.1 mph - N/A   Overcast
2:55 AM 33.8 °F 28.6 °F 30.2 °F 87% 29.85 in 6.0 mi East 5.8 mph - N/A   Overcast
3:15 AM 33.8 °F 28.6 °F 30.2 °F 87% 29.85 in 6.0 mi ENE 5.8 mph - N/A   Overcast
3:35 AM 33.8 °F 29.6 °F 30.2 °F 87% 29.85 in 6.0 mi East 4.6 mph - N/A   Overcast
3:55 AM 33.8 °F 28.6 °F 30.2 °F 87% 29.86 in 6.0 mi ENE 5.8 mph - N/A   Overcast
4:15 AM 33.8 °F 28.6 °F 30.2 °F 87% 29.87 in 6.0 mi East 5.8 mph - N/A   Overcast
4:35 AM 33.8 °F 28.6 °F 30.2 °F 87% 29.87 in 5.0 mi NE 5.8 mph - N/A   Overcast
4:55 AM 32.0 °F 28.7 °F 28.4 °F 87% 29.87 in 5.0 mi ESE 3.5 mph - N/A   Overcast
5:15 AM 32.0 °F 24.8 °F 30.2 °F 93% 29.86 in 5.0 mi ESE 8.1 mph - N/A   Overcast
5:35 AM 32.0 °F 26.4 °F 30.2 °F 93% 29.87 in 5.0 mi East 5.8 mph - N/A   Overcast
5:55 AM 32.0 °F 26.4 °F 28.4 °F 87% 29.87 in 5.0 mi ESE 5.8 mph - N/A   Overcast
6:15 AM 30.2 °F 24.3 °F 30.2 °F 100% 29.88 in 5.0 mi ESE 5.8 mph - N/A   Overcast
6:35 AM 32.0 °F 26.4 °F 30.2 °F 93% 29.87 in 5.0 mi East 5.8 mph - N/A   Overcast
6:55 AM 30.2 °F 23.4 °F 30.2 °F 100% 29.88 in 5.0 mi SE 6.9 mph - N/A   Overcast
7:15 AM 30.2 °F 26.7 °F 28.4 °F 93% 29.89 in 5.0 mi SSE 3.5 mph - N/A   Overcast
7:35 AM 32.0 °F 26.4 °F 30.2 °F 93% 29.89 in 5.0 mi SSE 5.8 mph - N/A   Overcast
7:55 AM 30.2 °F 24.3 °F 28.4 °F 93% 29.89 in 5.0 mi ESE 5.8 mph - N/A   Overcast
8:15 AM 30.2 °F 24.3 °F 28.4 °F 93% 29.90 in 5.0 mi East 5.8 mph - N/A   Overcast
8:35 AM 32.0 °F 28.7 °F 28.4 °F 87% 29.91 in 7.0 mi SE 3.5 mph - N/A   Overcast
8:55 AM 32.0 °F 26.4 °F 28.4 °F 87% 29.91 in 7.0 mi SSE 5.8 mph - N/A   Overcast
9:15 AM 32.0 °F 26.4 °F 28.4 °F 87% 29.91 in 8.0 mi SSE 5.8 mph - N/A   Overcast
9:35 AM 32.0 °F 25.6 °F 28.4 °F 87% 29.89 in 8.0 mi SSE 6.9 mph - N/A   Overcast
9:55 AM 33.8 °F 26.4 °F 28.4 °F 81% 29.88 in 8.0 mi South 9.2 mph - N/A   Overcast
10:15 AM 33.8 °F 26.4 °F 28.4 °F 81% 29.88 in 9.0 mi South 9.2 mph - N/A   Overcast
10:55 AM 35.6 °F 27.5 °F 30.2 °F 81% 29.87 in 10.0 mi South 11.5 mph - N/A   Overcast
11:15 AM 35.6 °F 27.5 °F 30.2 °F 81% 29.87 in 10.0 mi South 11.5 mph - N/A   Overcast
11:35 AM 37.4 °F 29.3 °F 32.0 °F 81% 29.86 in 10.0 mi South 12.7 mph 16.1 mph N/A   Mostly Cloudy
11:55 AM 39.2 °F 32.0 °F 32.0 °F 75% 29.86 in 8.0 mi South 11.5 mph - N/A   Partly Cloudy
12:15 PM 39.2 °F 32.0 °F 32.0 °F 75% 29.84 in 5.0 mi SSE 11.5 mph - N/A   Clear
12:35 PM 42.8 °F 37.5 °F 33.8 °F 70% 29.83 in 5.0 mi South 9.2 mph - N/A   Clear
12:55 PM 44.6 °F 38.4 °F 33.8 °F 66% 29.81 in 5.0 mi SSE 12.7 mph 17.3 mph N/A   Clear
1:15 PM 46.4 °F 41.1 °F 35.6 °F 66% 29.79 in 8.0 mi SSE 11.5 mph - N/A   Clear
1:35 PM 46.4 °F 41.5 °F 35.6 °F 66% 29.80 in 10.0 mi South 10.4 mph - N/A   Scattered Clouds
1:55 PM 46.4 °F 40.7 °F 35.6 °F 66% 29.79 in 10.0 mi SSE 12.7 mph - N/A   Mostly Cloudy
2:15 PM 48.2 °F - 37.4 °F 66% 29.80 in 10.0 mi South 10.4 mph - N/A   Overcast
2:35 PM 48.2 °F - 37.4 °F 66% 29.79 in 10.0 mi South 11.5 mph - N/A   Overcast
2:55 PM 50.0 °F - 37.4 °F 62% 29.79 in 10.0 mi South 12.7 mph - N/A   Overcast
3:15 PM 51.8 °F - 37.4 °F 58% 29.78 in 10.0 mi SSE 12.7 mph - N/A   Overcast
3:35 PM 51.8 °F - 37.4 °F 58% 29.76 in 10.0 mi SSE 11.5 mph - N/A   Mostly Cloudy
3:55 PM 51.8 °F - 39.2 °F 62% 29.75 in 10.0 mi South 11.5 mph - N/A   Overcast
4:15 PM 51.8 °F - 39.2 °F 62% 29.76 in 10.0 mi SSW 12.7 mph - N/A   Overcast
4:35 PM 48.2 °F - 39.2 °F 71% 29.77 in 9.0 mi SW 11.5 mph - N/A   Overcast
4:55 PM 48.2 °F - 39.2 °F 71% 29.76 in 9.0 mi SSW 6.9 mph - N/A   Overcast
5:15 PM 48.2 °F - 39.2 °F 71% 29.76 in 9.0 mi South 11.5 mph - N/A   Overcast
5:35 PM 48.2 °F - 41.0 °F 76% 29.76 in 7.0 mi South 10.4 mph - N/A   Overcast
5:55 PM 46.4 °F 42.4 °F 41.0 °F 81% 29.76 in 5.0 mi South 8.1 mph - N/A   Overcast
6:15 PM 46.4 °F 41.9 °F 42.8 °F 87% 29.75 in 5.0 mi South 9.2 mph - N/A   Overcast
6:35 PM 46.4 °F 42.4 °F 42.8 °F 87% 29.75 in 4.0 mi South 8.1 mph - N/A   Overcast
6:55 PM 44.6 °F 39.2 °F 42.8 °F 93% 29.75 in 4.0 mi South 10.4 mph - N/A   Overcast
7:15 PM 44.6 °F 38.4 °F 42.8 °F 93% 29.73 in 4.0 mi South 12.7 mph - N/A   Overcast
7:35 PM 44.6 °F 38.1 °F 42.8 °F 93% 29.72 in 4.0 mi South 13.8 mph - N/A   Overcast
7:55 PM 44.6 °F 38.1 °F 42.8 °F 93% 29.72 in 4.0 mi South 13.8 mph - N/A   Overcast
8:15 PM 44.6 °F 38.1 °F 42.8 °F 93% 29.71 in 4.0 mi South 13.8 mph - N/A   Overcast
8:35 PM 44.6 °F 38.4 °F 42.8 °F 93% 29.70 in 5.0 mi South 12.7 mph 19.6 mph N/A   Overcast
8:55 PM 44.6 °F 38.4 °F 42.8 °F 93% 29.70 in 4.0 mi South 12.7 mph 19.6 mph N/A   Overcast
9:15 PM 44.6 °F 38.4 °F 42.8 °F 93% 29.70 in 4.0 mi South 12.7 mph - N/A   Overcast
9:35 PM 44.6 °F 38.4 °F 42.8 °F 93% 29.70 in 4.0 mi South 12.7 mph - N/A   Overcast
9:55 PM 44.6 °F 40.2 °F 42.8 °F 93% 29.70 in 3.0 mi South 8.1 mph - N/A   Overcast
10:15 PM 44.6 °F 40.7 °F 42.8 °F 93% 29.69 in 3.0 mi South 6.9 mph - N/A   Overcast
10:35 PM 44.6 °F 39.2 °F 42.8 °F 93% 29.69 in 3.0 mi South 10.4 mph - N/A   Overcast
10:55 PM 44.6 °F 39.7 °F 42.8 °F 93% 29.68 in 4.0 mi South 9.2 mph - N/A   Overcast
11:15 PM 44.6 °F 40.2 °F 42.8 °F 93% 29.68 in 3.0 mi South 8.1 mph - N/A   Partly Cloudy
11:35 PM 42.8 °F 39.3 °F 41.0 °F 93% 29.68 in 3.0 mi SSE 5.8 mph - N/A   Clear
11:55 PM 42.8 °F 41.1 °F 41.0 °F 93% 29.68 in 2.5 mi South 3.5 mph - N/A   Mostly Cloudy